Regional Weather Roundup
Issued by NWS

Home | Current Version | Previous Version | Graphics & Text | Print | Product List | Glossary On
Versions: 1 2 3 4 5 6 7 8 9 10 11 12 13 14 15 16 17 18 19 20 21 22 23 24 25 26 27 28 29 30 31 32 33 34 35 36 37 38 39 40 41 42 43 44 45 46 47 48 49 50
000
ASUS43 KLMK 260902
RWRKY
KENTUCKY REGIONAL WEATHER ROUNDUP
NATIONAL WEATHER SERVICE LOUISVILLE KY
500 AM EDT SUN APR 26 2015

NOTE "FAIR" INDICATES FEW OR NO CLOUDS BELOW 12,000 FEET
WITH NO SIGNIFICANT WEATHER AND/OR OBSTRUCTIONS TO VISIBILITY.

KYZ001>023-026-027-061>063-070>075-261000-
WESTERN AND SOUTH CENTRAL KENTUCKY

CITY           SKY/WX    TMP DP  RH WIND       PRES   REMARKS
PADUCAH        CLOUDY    53  50  89 N10       29.72R
HENDERSON      CLOUDY    48  43  81 NE12      29.72R
OWENSBORO      CLOUDY    48  46  93 NE9       29.72R
HOPKINSVILLE   CLOUDY    56  55  96 N14       29.66R
BOWLING GREEN  CLOUDY    52  49  89 N8        29.67R
GLASGOW        NOT AVBL
$$

KYZ024-025-028>034-038-045-046-053-261000-
NORTH CENTRAL KENTUCKY

CITY           SKY/WX    TMP DP  RH WIND       PRES   REMARKS
LOUISVILLE/SDF DRIZZLE   46  43  89 NE9       29.72R
LOUISVILLE/LOU CLOUDY    46  42  86 N5        29.73R
FORT KNOX      CLOUDY    45  43  91 NE6       29.69S
$$

KYZ035>037-039>044-047>052-055>060-089>105-261000-
NORTHEAST KENTUCKY

CITY           SKY/WX    TMP DP  RH WIND       PRES   REMARKS
LEXINGTON      CLOUDY    43  42  97 NE10      29.68R
COVINGTON      CLOUDY    43  35  73 N14       29.73R
FRANKFORT      CLOUDY    44  41  89 NE5       29.68S
$$

KYZ054-064>069-076>088-106>120-261000-
SOUTHEAST KENTUCKY

CITY           SKY/WX    TMP DP  RH WIND       PRES   REMARKS
JACKSON        LGT RAIN  44  43  96 CALM      29.64R
LONDON         CLOUDY    53  49  86 N6        29.63R FOG
SOMERSET       NOT AVBL
MIDDLESBORO    CLOUDY    58  58 100 CALM      29.61R
MONTICELLO     CLOUDY    54  54 100 N10       29.67R FOG
$$



USA.gov is the U.S. government's official web portal to all federal, state and local government web resources and services.